Location: Alfortville
(48.8058°N, 2.4204°E)
Time: 18:12:15
(UTC+00:00)

Tiangong - Visible Passes

Search period start: 06 December 2022 00:00
Search period end: 16 December 2022 00:00
Orbit: 386 x 393 km, 41.5° (Epoch: 06 December)

Date Brightness Start Highest point End Pass type
(mag) Time Alt. Az. Time Alt. Az. Time Alt. Az.
06 Dec -0.1 17:41:34 10° SW 17:44:05 21° S 17:45:22 17° SSE visible
07 Dec 0.0 16:43:34 10° SW 16:46:06 22° S 16:48:38 10° SE visible
07 Dec 0.4 18:20:23 10° SW 18:22:24 16° SSW 18:22:24 16° SSW visible
08 Dec 0.3 17:22:05 10° WSW 17:24:26 19° S 17:26:47 10° SE visible
09 Dec 0.8 18:01:22 10° SW 18:02:37 12° SSW 18:03:51 10° S visible
10 Dec 0.7 17:02:35 10° SW 17:04:32 15° SSW 17:06:31 10° SSE visible
12 Dec 1.1 16:43:23 10° SW 16:44:25 11° SSW 16:45:25 10° S visible
